Regional Weather Roundup
Issued by NWS

Home | Current Version | Previous Version | Graphics & Text | Print | Product List | Glossary Off
Versions: 1 2 3 4 5 6 7 8 9 10 11 12 13 14 15 16 17 18 19 20 21 22 23 24 25 26 27 28 29 30 31 32 33 34 35 36 37 38 39 40 41 42 43 44 45 46 47 48 49 50

000
ASUS43 KFSD 210910
RWRSD

WEATHER ROUNDUP FOR SOUTH DAKOTA
NATIONAL WEATHER SERVICE SIOUX FALLS SD
400 AM CDT THU SEP 21 2017

NOTE: "FAIR" INDICATES FEW OR NO CLOUDS BELOW 12,000 FEET WITH NO
SIGNIFICANT WEATHER AND/OR OBSTRUCTIONS TO VISIBILITY.


SDZ001>005-009-010-012>017-211000-
NORTHWEST AND NORTH CENTRAL SOUTH DAKOTA

CITY           SKY/WX    TMP DP  RH WIND       PRES   REMARKS
BUFFALO          N/A     63  36  36 SE15      29.60S
FAITH            N/A     57  37  47 SE12      29.69F
MOBRIDGE       CLOUDY    59  44  57 SE13      29.73F
$$

SDZ012>016-024>037-041>051-057-063-072>074-211000-
SOUTHWEST AND SOUTH CENTRAL SOUTH DAKOTA

CITY           SKY/WX    TMP DP  RH WIND       PRES   REMARKS
RAPID CTY ARPT NOT AVBL
PIERRE         CLEAR     58  43  57 SE16      29.75F
CUSTER         CLEAR     51  29  42 S5        29.78F
ELLSWORTH AFB  CLEAR     58  35  43 S20       29.66F
PHILIP         CLOUDY    63  40  42 S20       29.72F
PINE RIDGE     CLEAR     64  36  35 S24G40    29.72F
SPEARFISH      FAIR      54  36  50 CALM      29.68F
WINNER         FAIR      59  44  57 SE13      29.81S
$$

SDZ004>011-016>023-039-040-211000-
NORTHEAST SOUTH DAKOTA

CITY           SKY/WX    TMP DP  RH WIND       PRES   REMARKS
ABERDEEN       CLOUDY    53  47  79 S12       29.83S
WATERTOWN      CLEAR     53  43  68 S12       29.89R
BROOKINGS      CLEAR     51  44  77 SE10      29.92S
SISSETON         N/A     48  45  89 SE5       29.88S
$$

SDZ017-020-022-023-036>040-048>070-211000-
SOUTHEAST SOUTH DAKOTA

CITY           SKY/WX    TMP DP  RH WIND       PRES   REMARKS
SIOUX FALLS    CLEAR     51  46  83 E3        29.92S
HURON          CLEAR     54  47  77 SE10      29.85S
CHAMBERLAIN    CLEAR     54  49  82 SE13      29.83S
MITCHELL       CLEAR     54  47  77 SE7       29.87S
YANKTON        CLEAR     51  48  89 E6        29.89F
$$

ABBREVIATIONS USED IN REMARKS
   TC - TEMPERATURE IN CELSIUS
  WCI - WIND CHILL INDEX
   HX - HEAT INDEX
  VSB - VISIBILITY





USA.gov is the U.S. government's official web portal to all federal, state and local government web resources and services.